Regional Weather Roundup
Issued by NWS Upton, NY

Home | Current Version | Previous Version | Text Only | Print | Product List | Glossary On
Versions: 1 2 3 4 5 6 7 8 9 10 11 12 13 14 15 16 17 18 19 20 21 22 23 24 25 26 27 28 29 30 31 32 33 34 35 36 37 38 39 40 41 42 43 44 45 46 47 48 49 50
203
ASUS41 KOKX 250204
RWROKX

REGIONAL WEATHER ROUNDUP
NATIONAL WEATHER SERVICE NEW YORK NY
1000 PM EDT SUN JUL 24 2016

NOTE: "FAIR" INDICATES FEW OR NO CLOUDS BELOW 12,000 FEET WITH NO
SIGNIFICANT WEATHER AND/OR OBSTRUCTIONS TO VISIBILITY.

NYZ071-072-176-178-NJZ106-104-250300-
NEW YORK CITY METRO AREA

CITY           SKY/WX    TMP DP  RH WIND       PRES   REMARKS
Central Park   CLEAR     83  66  56 VRB6      29.99R
LaGuardia APRT MOCLDY    86  67  52 SW9       29.96R
Kennedy INTL   MOCLDY    77  71  82 S14       29.98R
Newark/Liberty MOCLDY    83  67  58 S13       29.96R
BRNX BOT. GARD   N/A     82  64  54 SW10      29.99R
Wall St Helipt CLEAR     82  70  65 W5        29.98R
Teterboro      PTCLDY    84  65  52 S9        29.95R
$$

NYZ177-179-078>081-250300-
LONG ISLAND NEW YORK

CITY           SKY/WX    TMP DP  RH WIND       PRES   REMARKS
FARMINGDALE    PTCLDY    78  68  71 S6        29.98R
ISLIP          MOCLDY    76  71  85 S7        29.99R
SHIRLEY        PTCLDY    75  71  87 S8        30.00R
RIVERHEAD      NOT AVBL
WESTHAMPTON    PTCLDY    74  68  81 SW5       30.01R
SOUTHAMPTON      N/A     73  70  88 W5        29.96R
BRIDGEHAMPTON    N/A     73  68  83 S2        29.99R
EAST HAMPTON   FAIR      74  67  78 SW8       29.99R
MONTAUK POINT    N/A     74  67  78 VRB3      30.00R
$$

NYZ052-065-067-250300-
HUDSON VALLEY

CITY           SKY/WX    TMP DP  RH WIND       PRES   REMARKS
WHITE PLAINS   PTCLDY    76  66  71 E5        29.98R
NEWBURGH       PTCLDY    81  64  57 VRB5      29.98R
MONTGOMERY     CLOUDY    75  66  73 CALM      29.97R
POUGHKEEPSIE   CLOUDY    77  67  71 CALM      29.95R
ALBANY         CLOUDY    77  58  51 CALM      29.96R
$$

NJZ001-105-106-008-010-013-015-019>022-104-250300-
NEW JERSEY

CITY           SKY/WX    TMP DP  RH WIND       PRES   REMARKS
NEWARK/LIBERTY MOCLDY    83  67  58 S13       29.96R
TETERBORO      PTCLDY    84  65  52 S9        29.95R
CALDWELL       MOCLDY    84  66  54 SW3       29.96R
MORRISTOWN     CLOUDY    75  68  78 CALM      29.97R
SOMERVILLE     MOCLDY    76  67  73 CALM      29.95R
SUSSEX         MOCLDY    75  69  81 VRB3      29.98R
ANDOVER          N/A     72  68  87 CALM      29.99R
TRENTON        PTCLDY    81  65  58 S7        29.98R
MILLVILLE      PTCLDY    76  70  82 CALM      30.00R
ATLANTIC CITY  PTCLDY    78  70  76 S6        30.00R
WRIGHTSTOWN    PTCLDY    77  70  78 SW7       29.97R
TOMS RIVER     PTCLDY    75  66  73 S3        30.00R
BELMAR         PTCLDY    80  66  62 S6        30.00R
$$

PAZ047>061-062-071-250300-
EASTERN PENNSYLVANIA

CITY           SKY/WX    TMP DP  RH WIND       PRES   REMARKS
PHILADELPHIA   MOCLDY    82  65  56 S5        29.99R
ALLENTOWN      PTCLDY    82  65  56 SW7       29.98R
SCRANTON       CLOUDY    83  59  44 S7        29.98R
$$

CTZ002-004>006-009-010-012-RIZ004-006-007-MAZ004-011-015-250300-
SOUTHERN NEW ENGLAND
 IN CT

CITY           SKY/WX    TMP DP  RH WIND       PRES   REMARKS
BRADLEY INTL   CLOUDY    77  58  51 CALM      29.96R
HARTFORD       PTCLDY    82  65  56 S7        29.96R
DANBURY        MOCLDY    77  64  64 VRB3      30.00R
WTRBRY/OXFORD    N/A     73  61  64 S5        30.03R
BRIDGEPORT     PTCLDY    79  68  69 SW5       29.98R
MERIDEN        CLOUDY    78  64  61 CALM      29.98R
NEW HAVEN      CLOUDY    77  67  71 VRB3      29.99R
CHESTER        FAIR      75  66  73 SW6       30.00R
GROTON         PTCLDY    76  66  71 W5        29.98R
WILLIMANTIC    NOT AVBL

 IN RI

CITY           SKY/WX    TMP DP  RH WIND       PRES   REMARKS
PROVIDENCE     PTCLDY    78  63  59 W9        29.97R
BLOCK ISLAND   CLOUDY    72  68  87 W14       30.00R
WESTERLY       PTCLDY    72  64  76 W3        29.99R

 IN MA

CITY           SKY/WX    TMP DP  RH WIND       PRES   REMARKS
BOSTON         PTCLDY    72  65  78 N6        29.97R
WORCESTER      CLOUDY    76  46  34 NW5       30.01S
WESTFIELD      CLOUDY    74  59  59 CALM      29.97S
PROVINCETOWN   PTCLDY    71  66  84 S8        29.97R
NANTUCKET      PTCLDY    67  66  97 S5        29.99S
$$

ANZ330-335-338-340-345-350-353-355-250300-
COASTAL MARINE OBSERVATIONS


STATION/POSITION TIME  SKY/WX   TEMP    WIND        PRES    VSBY  WAVE
                                AIR SEA DIR/SP/G                  HT/PER
                 (UTC)          (F)     (DEG/KT/KT) (MB)    (MI)  (FT/S)
NY HARB ENTRANCE 0050            77 73  200/ 14/ 16 1014.2          3/ 6
20S FIRE ISLAND  0050            75 74  190/ 10/ 10 1014.5          3/ 6
GREAT SOUTH BAY  0100            76 81  170/  4/  8   N/A
23 SSW MONTAUK P 0050            74 72  230/  6/  8 1015.6          2/ 6
15 E BARNEGAT LI 0122               76                N/A           2/ 6
HUDSON CANYON    0050            77 78              1015.5          2/ 6
KINGS POINT      0100            79 74                N/A
EXECUTION ROCKS  0100            78     180/  6/  8   N/A
CENTRAL LI SOUND 0100            77 75  210/ 12/ 14   N/A           1/ 2
EASTERN LI SOUND 0100            73 68  240/ 10/ 12   N/A
ROBBINS REEF     0100            84     200/ 14/ 18   N/A
$$


>>>>>>>>>>>>>>>>>>>>>>>>>>>> KEY <<<<<<<<<<<<<<<<<<<<<<<<<<<
>                                                          <
>     SKY/WX - SKY CONDITION/PRESENT WEATHER               <
>     TMP    - TEMPERATURE IN FAHRENHEIT                   <
>     DP     - DEWPOINT IN FAHRENHEIT                      <
>     RH     - RELATIVE HUMIDITY IN PERCENT                <
>     WIND   - DIRECTION AND SPEED IN MPH                  <
>     PRES   - MEAN SEA LEVEL PRESSURE IN INCHES OF HG     <
>     WCI    - WIND CHILL INDEX                            <
>     VSB    - VISIBILITY IN MILES                         <
>     HX     - HEAT INDEX                                  <
>     TC     - TEMPERATURE IN CELSIUS                      <
>     VRB    - VARIABLE WIND DIRECTION                     <
>                                                          <
>>>>>>>>>>>>>>>>>>>>>>>>>>>> KEY <<<<<<<<<<<<<<<<<<<<<<<<<<<






USA.gov is the U.S. government's official web portal to all federal, state and local government web resources and services.